[[{"header":{"parameterUnit":"m.s-1","parameterCategory":1,"la1":30.2991,"la2":30.254,"lo1":-89.0895,"lo2":-89.0444,"dy":0.0017,"dx":0.0017,"nx":28,"ny":28,"refTime":"2025-01-04T03:00:00:Z","depth":0,"parameterNumber":2,"parameterNumberName":"U-component_of_WINDS"},"data":[0,0,0,0,0,0,0,0,0,0,0,0,0,0,0,0,0,0,0,0,0,0,0,0,0,0,0,0,0,0,0,0,0,0,0,0,0,0,0,0,0,0,0,0,0,0,0,0,0,0,0,0,0,0,0,0,0,0,-3.3526,-3.3528,0,-3.3682,-3.3683,-3.3685,-3.376,-3.376,-3.376,-3.376,-3.3919,-3.3923,-3.3927,0,0,0,0,0,0,0,0,0,0,0,0,0,-3.3294,-3.3298,-3.3526,-3.3528,-3.353,-3.3681,-3.3683,-3.3685,-3.376,-3.376,-3.376,-3.376,-3.3917,-3.3922,-3.3927,0,0,0,0,0,0,0,0,0,0,0,0,0,-3.3417,-3.3299,-3.3526,-3.3586,-3.3593,-3.3681,-3.3683,-3.3686,-3.376,-3.376,-3.376,-3.376,-3.3915,-3.3922,-3.3928,-3.3968,0,0,-3.3947,-3.395,0,0,0,0,0,0,0,0,-3.3409,-3.3425,-3.3575,-3.3582,-3.359,-3.3702,-3.366,-3.3781,-3.376,-3.3697,-3.376,-3.376,-3.3846,-3.3858,-3.3888,-3.3975,-3.3982,-3.3948,-3.3952,-3.3954,-3.3956,0,0,0,0,0,0,0,-3.3401,-3.3419,-3.3588,-3.3577,-3.3586,-3.3605,-3.3622,-3.3683,-3.377,-3.3702,-3.3708,-3.3726,-3.385,-3.3881,-3.3892,-3.3985,-3.3948,-3.3953,-3.3957,-3.396,-3.4113,-3.4113,0,0,0,0,0,0,-3.3383,-3.3411,-3.3583,-3.3592,-3.3498,-3.3609,-3.3628,-3.3666,-3.3769,-3.3785,-3.3725,-3.3728,-3.387,-3.3884,-3.3898,-3.3952,-3.3954,-3.396,-3.3964,-3.4113,-3.4113,-3.4113,0,0,0,0,0,0,-3.3378,-3.3397,-3.3577,-3.3503,-3.3528,-3.3613,-3.3654,-3.3669,-3.37,-3.3787,-3.3803,-3.3741,-3.3871,-3.3889,-3.395,-3.3958,-3.3963,-3.3969,-3.4112,-3.4113,-3.4113,-3.406,0,0,0,0,0,0,-3.3371,-3.3395,-3.3411,-3.3503,-3.3531,-3.3626,-3.3655,-3.3672,-3.3711,-3.3716,-3.3806,-3.3821,-3.3872,-3.394,-3.3956,-3.3967,-3.3974,-3.4112,-3.4113,-3.4113,-3.4061,-3.4058,-3.4056,0,0,0,0,0,-3.3362,-3.339,-3.3412,-3.3432,-3.3554,-3.3627,-3.3643,-3.3702,-3.3711,-3.3728,-3.3784,-3.3818,-3.3954,-3.3946,-3.3965,-3.3977,-3.4112,-3.4112,-3.4113,-3.4062,-3.4059,-3.4056,0,0,0,0,0,0,-3.3297,-3.3403,-3.3429,-3.3487,-3.3547,-3.3639,-3.3663,-3.3696,-3.3755,-3.3758,-3.3828,-3.3848,-3.3903,-3.3946,-3.3935,-3.4022,-3.4036,-3.4041,-3.3991,-3.3989,-3.3986,-3.3975,-3.3979,0,0,0,0,0,-3.329,-3.334,-3.343,-3.3473,-3.3502,-3.3577,-3.3611,-3.3651,-3.3716,-3.3742,-3.3803,-3.3864,-3.3921,-3.3957,-3.4014,-3.4067,-3.4088,-3.4085,-3.4083,-3.408,-3.4083,-3.4114,-3.4114,-3.4115,-3.4115,-3.4115,0,0,-3.3275,-3.3339,-3.3367,-3.3462,-3.3513,-3.3564,-3.3598,-3.365,-3.3689,-3.375,-3.3812,-3.3858,-3.3931,-3.3989,-3.4017,-3.4027,-3.4087,-3.4081,-3.4078,-3.4083,-3.4115,-3.4115,-3.4115,-3.4116,-3.4115,-3.4115,0,0,-3.3274,-3.3327,-3.3369,-3.342,-3.3497,-3.3547,-3.3556,-3.3643,-3.3676,-3.3739,-3.3786,-3.3833,-3.3929,-3.398,-3.4018,-3.4035,-3.4068,-3.4051,-3.4037,-3.4067,-3.4067,-3.4067,-3.4074,-3.4075,-3.4054,-3.4054,-3.4054,0,-3.3246,-3.3324,-3.3386,-3.3436,-3.3477,-3.3534,-3.3577,-3.3623,-3.3715,-3.3741,-3.3751,-3.3873,-3.3926,-3.3996,-3.4,-3.4029,-3.4043,-3.4042,-3.4062,-3.4063,-3.4064,-3.4071,-3.4073,-3.4051,-3.4052,-3.4052,-3.4052,0,-3.3286,-3.334,-3.3364,-3.3451,-3.3494,-3.354,-3.3609,-3.3645,-3.3681,-3.3729,-3.3792,-3.3858,-3.393,-3.3949,-3.3985,-3.4024,-3.4028,-3.4048,-3.4065,-3.4061,-3.4068,-3.4071,-3.4048,-3.4049,-3.4049,-3.405,0,0,-3.325,-3.337,-3.3378,-3.3418,-3.3507,-3.355,-3.3598,-3.3668,-3.3697,-3.3758,-3.38,-3.388,-3.39,-3.3943,-3.3985,-3.4011,-3.4021,-3.4029,-3.4032,-3.4026,-3.4068,-3.4052,-3.4054,-3.4043,-3.4043,-3.4044,-3.4062,0,-3.3261,-3.3351,-3.3408,-3.3474,-3.3524,-3.3579,-3.3621,-3.368,-3.3726,-3.3775,-3.3826,-3.3882,-3.3904,-3.393,-3.3958,-3.4013,-3.403,-3.4013,-3.4083,-3.4085,-3.4064,-3.4058,-3.4042,-3.4056,-3.4065,-3.4066,-3.4066,0,-3.3288,-3.3347,-3.3418,-3.3501,-3.3525,-3.3561,-3.363,-3.3676,-3.3744,-3.3776,-3.3823,-3.3865,-3.3918,-3.3929,-3.4003,-3.399,-3.4022,-3.4053,-3.4055,-3.4065,-3.4076,-3.4068,-3.4061,-3.4063,-3.4072,-3.4071,-3.4071,0,-3.3254,-3.3352,-3.3407,-3.344,-3.3538,-3.3563,-3.3605,-3.3672,-3.371,-3.377,-3.3796,-3.3861,-3.3896,-3.3945,-3.4004,-3.4006,-3.4072,-3.4088,-3.41,-3.4098,-3.4112,-3.411,-3.4111,-3.4131,-3.4131,-3.4131,-3.4131,0,-3.3262,-3.3303,-3.3394,-3.3428,-3.3476,-3.354,-3.3586,-3.3633,-3.3692,-3.3736,-3.3787,-3.3828,-3.3902,-3.3951,-3.3997,-3.4052,-3.4067,-3.4094,-3.4106,-3.409,-3.4087,-3.4113,-3.4113,-3.4131,-3.4131,-3.4131,-3.4131,0,-3.3233,-3.3295,-3.3359,-3.3447,-3.347,-3.3501,-3.3576,-3.3611,-3.3659,-3.3714,-3.3731,-3.3807,-3.3868,-3.3931,-3.4013,-3.4044,-3.4096,-3.4112,-3.4073,-3.408,-3.4089,-3.4087,-3.4106,-3.4112,-3.4127,-3.4127,-3.4127,0,-3.3234,-3.3268,-3.3358,-3.3391,-3.3432,-3.3485,-3.3524,-3.3588,-3.3627,-3.3706,-3.3732,-3.3796,-3.3851,-3.3945,-3.4008,-3.4071,-3.4089,-3.4091,-3.4099,-3.4082,-3.409,-3.4087,-3.4091,-3.4089,-3.4088,-3.4088,-3.4088,0,-3.323,-3.3259,-3.3313,-3.3378,-3.3424,-3.3478,-3.3535,-3.3559,-3.3634,-3.3675,-3.3738,-3.378,-3.3864,-3.3927,-3.3997,-3.4041,-3.4077,-3.4085,-3.4091,-3.4075,-3.4052,-3.4065,-3.4067,-3.4084,-3.4085,-3.4085,-3.4085,-3.4085,-3.3217,-3.3249,-3.3317,-3.3376,-3.3425,-3.3477,-3.3514,-3.3567,-3.362,-3.3693,-3.3728,-3.379,-3.3857,-3.3955,-3.3997,-3.4047,-3.4058,-3.4067,-3.4069,-3.407,-3.4067,-3.4043,-3.406,-3.4061,-3.4061,-3.4061,-3.4061,0,-3.3215,-3.3262,-3.3315,-3.3392,-3.3439,-3.3468,-3.3532,-3.3569,-3.3623,-3.3682,-3.3735,-3.3807,-3.3868,-3.3935,-3.4001,-3.4028,-3.4046,-3.4043,-3.4042,-3.4051,-3.4053,-3.4042,-3.4027,-3.4027,-3.4027,-3.4027,-3.4027,-3.4027,-3.322,-3.3276,-3.3312,-3.3393,-3.344,-3.3501,-3.3535,-3.3583,-3.363,-3.3708,-3.3759,-3.3802,-3.3864,-3.3935,-3.3992,-3.4011,-3.4033,-3.4025,-3.4047,-3.4048,-3.4051,-3.4054,-3.4043,-3.4029,-3.4029,-3.4042,-3.4042,-3.4042]},{"header":{"parameterUnit":"m.s-1","parameterCategory":1,"la1":30.2991,"la2":30.254,"lo1":-89.0895,"lo2":-89.0444,"dy":0.0017,"dx":0.0017,"nx":28,"ny":28,"refTime":"2025-01-04T03:00:00:Z","depth":0,"parameterNumber":3,"parameterNumberName":"V-component_of_WINDS"},"data":[0,0,0,0,0,0,0,0,0,0,0,0,0,0,0,0,0,0,0,0,0,0,0,0,0,0,0,0,0,0,0,0,0,0,0,0,0,0,0,0,0,0,0,0,0,0,0,0,0,0,0,0,0,0,0,0,0,0,6.5661,6.5662,0,6.5732,6.5733,6.5734,6.5715,6.5713,6.5712,6.571,6.5782,6.5785,6.5788,0,0,0,0,0,0,0,0,0,0,0,0,0,6.5511,6.5514,6.5661,6.5662,6.5663,6.5732,6.5733,6.5734,6.5715,6.5713,6.5711,6.571,6.5781,6.5785,6.5789,0,0,0,0,0,0,0,0,0,0,0,0,0,6.5578,6.5515,6.5661,6.5662,6.5662,6.5732,6.5733,6.5734,6.5715,6.5713,6.5711,6.5709,6.578,6.5785,6.5789,6.5862,0,0,6.5804,6.5806,0,0,0,0,0,0,0,0,6.5575,6.5584,6.5661,6.5662,6.5663,6.5712,6.5706,6.5777,6.5716,6.5695,6.571,6.5708,6.5761,6.5767,6.5785,6.5865,6.5868,6.5805,6.5807,6.581,6.5811,0,0,0,0,0,0,0,6.557,6.5581,6.5689,6.5662,6.5663,6.5659,6.5666,6.572,6.5739,6.5697,6.5696,6.5704,6.5761,6.578,6.5786,6.5869,6.5804,6.5809,6.5812,6.5814,6.6018,6.602,0,0,0,0,0,0,6.5564,6.5577,6.5687,6.5691,6.5613,6.5664,6.5672,6.5698,6.5738,6.5742,6.5706,6.5703,6.5773,6.5781,6.5789,6.588,6.581,6.5814,6.5817,6.6015,6.6018,6.6021,0,0,0,0,0,0,6.5561,6.5574,6.5684,6.5634,6.5648,6.5668,6.5699,6.5701,6.572,6.5745,6.5749,6.5722,6.5772,6.5782,6.5845,6.5882,6.5816,6.5821,6.6012,6.6016,6.602,6.606,0,0,0,0,0,0,6.5557,6.5573,6.56,6.5635,6.565,6.5738,6.5701,6.5704,6.5729,6.5726,6.5761,6.5765,6.5771,6.5838,6.585,6.5887,6.5824,6.6009,6.6014,6.6018,6.6055,6.6064,6.6072,0,0,0,0,0,6.5552,6.5607,6.5602,6.5615,6.5684,6.574,6.5749,6.5755,6.5732,6.576,6.5777,6.5764,6.5876,6.5844,6.5858,6.5897,6.6007,6.6013,6.6018,6.6051,6.6062,6.6072,0,0,0,0,0,0,6.5575,6.5612,6.5606,6.5674,6.5705,6.5737,6.5772,6.5766,6.5803,6.5798,6.5803,6.5811,6.5877,6.5893,6.5857,6.5972,6.5938,6.5947,6.5959,6.597,6.5978,6.5973,6.5828,0,0,0,0,0,6.5589,6.5631,6.566,6.5718,6.5734,6.5751,6.5775,6.5777,6.5809,6.5821,6.5842,6.5873,6.5916,6.5943,6.5983,6.6057,6.6067,6.6091,6.61,6.6107,6.6114,6.6159,6.6171,6.6039,6.6039,6.6039,0,0,6.5616,6.5641,6.5667,6.5724,6.5747,6.5792,6.5761,6.5809,6.5843,6.5828,6.589,6.5907,6.5942,6.6012,6.6044,6.6028,6.6153,6.6114,6.6119,6.6123,6.6166,6.6179,6.619,6.6043,6.6043,6.6042,0,0,6.569,6.5712,6.5764,6.579,6.5827,6.5839,6.5851,6.5886,6.5897,6.5959,6.5951,6.5991,6.6063,6.609,6.6113,6.6202,6.6193,6.6215,6.626,6.6303,6.6313,6.6323,6.6357,6.6369,6.6222,6.6222,6.6222,0,6.5719,6.5786,6.5792,6.5842,6.5868,6.5859,6.5914,6.5938,6.5986,6.6005,6.5986,6.6079,6.6102,6.618,6.6203,6.622,6.6237,6.6211,6.6311,6.6321,6.633,6.6363,6.6376,6.6225,6.6225,6.6224,6.6224,0,6.5822,6.5869,6.5907,6.5956,6.5987,6.6039,6.6054,6.6084,6.6085,6.6099,6.6165,6.6192,6.624,6.6258,6.6258,6.6338,6.6327,6.631,6.6276,6.6345,6.6376,6.6389,6.6229,6.6228,6.6227,6.6226,0,0,6.5911,6.5965,6.5979,6.6004,6.6046,6.6083,6.6135,6.6183,6.6211,6.6245,6.6291,6.6354,6.634,6.6367,6.637,6.6408,6.6481,6.6386,6.6387,6.6405,6.6575,6.6589,6.6603,6.6475,6.6478,6.6479,6.6573,0,6.599,6.6084,6.6093,6.6177,6.6222,6.6216,6.6263,6.6295,6.631,6.6352,6.6368,6.6415,6.6391,6.6408,6.6445,6.6464,6.6515,6.6457,6.652,6.6522,6.6513,6.6619,6.6633,6.672,6.6585,6.6587,6.6588,0,6.6095,6.6135,6.6225,6.6265,6.6284,6.6326,6.6373,6.6412,6.6449,6.6458,6.649,6.6489,6.6545,6.651,6.6589,6.655,6.6576,6.659,6.6594,6.6601,6.656,6.6631,6.6747,6.6761,6.6607,6.6606,6.6604,0,6.6154,6.623,6.6295,6.6315,6.6363,6.6393,6.6414,6.6449,6.6479,6.652,6.654,6.6586,6.6612,6.6649,6.6662,6.6634,6.6742,6.6706,6.6753,6.6753,6.6776,6.6775,6.69,6.679,6.679,6.679,6.679,0,6.6243,6.6299,6.6323,6.6363,6.6426,6.6436,6.6499,6.6519,6.6551,6.6596,6.6592,6.6635,6.6648,6.6693,6.6704,6.677,6.6781,6.6791,6.6794,6.6793,6.6792,6.6811,6.6806,6.6793,6.6793,6.6792,6.6791,0,6.632,6.6338,6.6409,6.6449,6.6461,6.6506,6.6541,6.6581,6.6597,6.6654,6.6668,6.6693,6.6747,6.6763,6.6827,6.6834,6.6913,6.6908,6.6901,6.6901,6.6948,6.6945,6.7092,6.7113,6.6987,6.6988,6.6989,0,6.6376,6.642,6.6466,6.6496,6.652,6.6568,6.6599,6.6612,6.6645,6.6693,6.6727,6.6781,6.6824,6.691,6.6935,6.6984,6.6983,6.7031,6.699,6.6989,6.6987,6.6985,6.6991,6.7039,6.704,6.7041,6.7042,0,6.6475,6.6483,6.6528,6.6579,6.6616,6.6656,6.6694,6.6719,6.6738,6.6775,6.6831,6.6865,6.6932,6.6986,6.7037,6.706,6.7056,6.7055,6.7069,6.7069,6.7064,6.7071,6.6924,6.7052,6.7051,6.705,6.705,6.7049,6.6546,6.6586,6.6626,6.6677,6.6708,6.6745,6.6785,6.6808,6.6855,6.6911,6.6916,6.6977,6.7017,6.7086,6.7111,6.716,6.7146,6.7166,6.7171,6.7176,6.7182,6.7055,6.7169,6.7169,6.7169,6.7168,6.7168,0,6.6647,6.6674,6.6721,6.6776,6.6818,6.6811,6.6854,6.6889,6.6943,6.6981,6.7025,6.7091,6.7144,6.7174,6.7228,6.7262,6.7261,6.7276,6.7274,6.728,6.7189,6.7173,6.7275,6.7275,6.7275,6.7275,6.7275,6.7275,6.6705,6.6774,6.6787,6.6872,6.6898,6.6958,6.6984,6.7019,6.705,6.7124,6.7169,6.7188,6.7224,6.7281,6.7331,6.7339,6.736,6.7376,6.7383,6.7297,6.7286,6.7276,6.7261,6.738,6.738,6.747,6.7471,6.7472]}]]